Overview Statistics Trail Chart Weather Telemetry Raw packets
 

This is the latest recevied weather packets stored in our database for station/object KN6WGU. If no packets are shown the sender has not sent any weather packets the latest 10 day(s).

<< 47 48 49 50 51 52 53 >>
Time Temp. Humidity Pressure Rain* Wind** Luminosity Snow
1788306441 28.33° C 64% 1008 hPa 0 mm - 6 W/m² -
1788306136 28.33° C 64% 1008 hPa 0 mm - 8 W/m² -
1788305830 28.33° C 65% 1008 hPa 0 mm - 10 W/m² -
1788305527 28.89° C 65% 1007.8 hPa 0 mm - 13 W/m² -
1788305226 28.89° C 66% 1008 hPa 0 mm - 17 W/m² -
1788304921 28.89° C 66% 1008.1 hPa 0 mm - 20 W/m² -
1788304618 28.89° C 68% 1008.3 hPa 0 mm - 21 W/m² -
1788304314 28.89° C 69% 1008.4 hPa 0 mm - 21 W/m² -
1788304010 28.89° C 69% 1008.5 hPa 0 mm - 24 W/m² -
1788303709 28.89° C 69% 1008.2 hPa 0 mm - 33 W/m² -
1788303404 28.89° C 70% 1008.4 hPa 0 mm - 29 W/m² -
1788303099 28.89° C 70% 1008.4 hPa 0 mm - 23 W/m² -
1788302795 28.89° C 72% 1008.6 hPa 0 mm - 24 W/m² -
1788302491 28.89° C 72% 1008.5 hPa 0 mm - 37 W/m² -
1788302186 29.44° C 72% 1008.5 hPa 0 mm - 50 W/m² -
1788301882 29.44° C 71% 1008.5 hPa 0 mm - 54 W/m² -
1788301578 29.44° C 70% 1008.6 hPa 0 mm - 58 W/m² -
1788301274 29.44° C 70% 1008.7 hPa 0 mm - 62 W/m² -
1788300969 29.44° C 69% 1008.3 hPa 0 mm - 51 W/m² -
1788300660 29.44° C 69% 1008.6 hPa 0 mm - 48 W/m² -
1788300359 29.44° C 68% 1008.7 hPa 0 mm - 41 W/m² -
1788300058 29.44° C 68% 1008.6 hPa 0 mm - 37 W/m² -
1788299756 30° C 69% 1008.6 hPa 0 mm - 41 W/m² -
1788299456 30° C 67% 1008.8 hPa 0 mm - 62 W/m² -
1788299155 30° C 67% 1008.6 hPa 0 mm - 108 W/m² -

* Rain latest hour (hover to see other rain measurements)
** Current wind speed in m/s (hover to see current wind gust speed)